TimeCDT,TemperatureF,Dew PointF,Humidity,Sea Level PressureIn,VisibilityMPH,Wind Direction,Wind SpeedMPH,Gust SpeedMPH,PrecipitationIn,Events,Conditions,WindDirDegrees,DateUTC
12:54 AM,37.9,32.0,79,30.19,10.0,North,3.5,-,N/A,,Clear,350,2011-11-03 05:54:00
1:54 AM,37.0,32.0,82,30.20,10.0,NNW,4.6,-,N/A,,Clear,340,2011-11-03 06:54:00
2:54 AM,36.0,30.9,82,30.21,10.0,NNW,3.5,-,N/A,,Clear,340,2011-11-03 07:54:00
4:54 AM,33.1,30.9,92,30.21,10.0,Calm,Calm,-,N/A,,Clear,0,2011-11-03 09:54:00
5:54 AM,32.0,28.9,88,30.20,10.0,North,3.5,-,N/A,,Clear,350,2011-11-03 10:54:00
7:54 AM,30.9,28.0,89,30.27,10.0,Calm,Calm,-,N/A,,Clear,0,2011-11-03 12:54:00
8:54 AM,34.0,30.0,85,30.29,10.0,NW,5.8,-,N/A,,Clear,320,2011-11-03 13:54:00
9:54 AM,36.0,30.9,82,30.29,10.0,NNW,6.9,-,N/A,,Clear,340,2011-11-03 14:54:00
10:54 AM,41.0,28.9,62,30.26,10.0,NNE,9.2,-,N/A,,Clear,20,2011-11-03 15:54:00
11:54 AM,43.0,28.9,58,30.25,10.0,NNE,8.1,-,N/A,,Clear,20,2011-11-03 16:54:00
12:54 PM,44.1,28.0,53,30.24,10.0,NNW,4.6,-,N/A,,Clear,330,2011-11-03 17:54:00
1:54 PM,46.9,27.0,46,30.22,10.0,Variable,4.6,-,N/A,,Clear,0,2011-11-03 18:54:00
2:54 PM,48.9,27.0,43,30.21,10.0,North,8.1,-,N/A,,Clear,350,2011-11-03 19:54:00
3:54 PM,50.0,25.0,38,30.21,10.0,NW,5.8,-,N/A,,Clear,310,2011-11-03 20:54:00
4:54 PM,50.0,21.9,33,30.22,10.0,NNW,3.5,-,N/A,,Clear,340,2011-11-03 21:54:00
5:54 PM,45.0,19.9,37,30.24,10.0,NNW,3.5,-,N/A,,Clear,330,2011-11-03 22:54:00
6:54 PM,39.0,21.9,50,30.25,10.0,Calm,Calm,-,N/A,,Clear,0,2011-11-03 23:54:00
7:54 PM,35.1,24.1,64,30.27,10.0,Calm,Calm,-,N/A,,Clear,0,2011-11-04 00:54:00
9:54 PM,30.9,25.0,79,30.29,10.0,Calm,Calm,-,N/A,,Clear,0,2011-11-04 02:54:00
10:54 PM,28.9,25.0,85,30.29,10.0,Calm,Calm,-,N/A,,Clear,0,2011-11-04 03:54:00
11:54 PM,28.9,25.0,85,30.29,10.0,Calm,Calm,-,N/A,,Clear,0,2011-11-04 04:54:00